RH
84 78 66 62 62 56 55 50 57 32 26 24 25 23 30 46 50 41 29 24 42 46 44 46 49 56 61 60 62 61 67 70 73 76 78 80 84 86 87 85 83 82 85 84
91 65 62 57 49 47 46 44 43 42 32 31 59 74 88 92 90 87 59 30 28 43 44 45 48 49 60 64 64 64 69 70 74 78 80 82 83 85 88 89 87 85 85 84
91 66 59 58 46 47 48 48 57 38 49 59 83 91 89 88 88 94 92 48 25 38 40 42 44 47 56 64 65 69 71 72 76 81 84 85 85 86 87 87 88 89 87 86
96 76 81 69 52 41 46 53 60 54 56 81 87 83 75 71 80 82 92 87 44 36 39 42 40 41 52 59 71 73 75 77 78 82 86 86 88 90 90 86 87 89 89 88
88 78 59 56 62 66 61 54 61 68 60 59 65 68 81 66 72 79 84 98 62 46 49 52 47 50 57 63 69 75 77 79 80 82 85 87 90 90 90 89 89 87 86 90
98 89 97 83 64 54 55 65 59 63 66 58 76 90 78 53 61 78 81 91 89 62 61 57 60 51 59 64 70 78 76 78 80 82 84 86 86 89 88 89 87 83 85 86
92 93 94 80 74 61 68 73 62 59 56 55 62 64 53 48 50 63 79 88 91 81 71 63 57 55 64 66 69 69 72 77 82 83 85 85 87 86 87 88 88 90 90 87
98 99 100 76 73 78 74 66 63 63 58 54 50 50 53 55 61 62 78 86 87 94 96 87 73 60 69 72 74 76 76 78 82 84 78 78 88 89 89 89 92 92 92 90
99 99 92 86 86 76 75 77 72 63 58 53 47 51 51 66 77 77 76 84 85 92 89 89 91 84 88 95 88 81 78 78 81 84 82 82 88 90 89 90 87 89 88 87
98 92 87 78 68 68 74 82 69 64 58 53 51 48 51 60 73 85 88 85 85 90 94 94 91 88 90 90 92 91 90 89 86 84 84 82 80 82 84 85 87 85 87 86
98 90 82 71 76 74 77 76 77 70 63 58 56 50 54 60 68 74 84 90 91 92 94 96 94 93 92 91 89 91 93 93 94 91 90 89 89 88 82 81 83 82 81 82
98 89 98 90 82 86 87 85 79 81 74 65 62 60 56 58 66 76 74 84 91 94 94 95 94 92 94 94 90 90 90 88 92 96 96 96 96 95 99 99 100 100 100 98
98 88 86 80 76 76 86 84 78 76 78 78 67 62 58 59 64 74 73 79 92 97 95 94 94 92 92 91 90 89 89 88 88 92 97 98 97 95 96 95 99 100 100 100
81 81 89 87 90 78 80 83 82 79 71 77 73 65 60 59 64 66 72 89 94 93 90 89 88 92 86 88 93 90 90 100 92 92 93 98 97 97 91 90 94 90 99 98
77 79 82 81 80 82 79 83 83 82 80 79 76 68 63 62 70 70 85 91 91 85 87 89 88 87 83 81 88 92 87 89 92 97 97 98 98 96 85 86 88 89 95 98
75 79 82 84 85 85 85 90 90 89 84 81 88 78 65 68 82 89 91 94 95 95 91 91 90 88 86 86 86 86 88 98 96 93 96 97 97 95 90 90 94 96 95 98
83 92 88 89 90 89 90 88 92 95 92 90 93 95 95 92 93 94 94 91 92 92 92 95 95 91 90 85 87 87 86 87 95 89 91 91 92 93 93 94 96 98 99 100
95 91 87 91 92 91 90 90 91 92 96 94 90 92 94 96 98 97 94 89 90 91 91 90 90 89 90 88 87 87 86 86 85 89 90 88 90 87 92 96 96 97 98 99
90 93 91 90 89 87 90 91 91 91 91 91 92 95 94 96 97 97 96 96 95 95 92 90 88 92 93 91 92 89 84 86 89 91 89 94 89 88 89 91 91 90 87 87
87 88 89 90 91 94 94 92 89 91 91 90 90 93 96 96 96 96 96 98 98 96 94 91 92 93 93 92 93 86 86 87 89 92 91 89 90 92 91 93 86 86 87 87
85 86 88 91 92 92 94 94 93 92 91 92 94 94 95 94 95 95 98 98 98 95 93 93 96 93 94 95 90 88 91 90 90 93 91 92 93 91 90 88 89 88 88 87
85 86 83 88 93 95 92 93 93 92 90 89 91 92 92 94 92 92 93 98 98 93 96 97 96 94 95 93 92 92 90 89 91 93 94 92 92 90 90 90 90 89 90 89
89 86 84 84 87 90 92 92 87 88 89 91 86 84 89 97 98 94 97 95 95 94 97 97 93 93 94 97 95 93 93 93 95 95 96 94 95 94 90 83 81 81 81 85
86 88 88 84 84 87 88 84 82 87 82 78 79 85 88 93 92 97 96 86 88 90 93 96 94 92 92 97 96 96 96 96 95 95 94 93 92 91 90 86 86 83 76 75
69 76 82 85 84 74 64 64 65 68 66 71 66 62 60 66 87 71 84 90 90 90 93 92 93 92 96 96 96 96 96 96 95 95 94 94 93 92 93 92 88 88 88 86
55 55 60 68 60 57 58 56 53 56 56 56 56 57 55 56 52 55 60 72 73 85 90 94 96 96 95 95 95 95 96 96 95 96 95 95 94 93 91 89 83 82 77 66
57 61 57 55 56 59 54 56 55 58 64 64 61 62 61 58 56 54 58 53 57 68 72 81 90 93 93 94 95 95 96 96 98 96 95 95 94 92 88 78 63 55 53 57
Wind_Speed
11 12 10 10 16 17 7 12 4 7 10 10 10 10 6 6 5 10 15 13 16 19 19 20 19 17 17 18 19 19 18 18 18 17 15 15 15 15 13 14 14 13 13 12
6 12 14 15 16 15 18 18 12 17 10 4 4 5 4 5 7 8 13 16 19 22 22 21 22 21 20 19 19 19 18 18 17 16 16 16 15 15 14 14 14 13 13 13
6 4 8 7 16 9 6 9 3 6 3 7 1 6 8 8 9 12 15 14 17 23 22 21 22 21 20 20 18 19 18 17 16 15 16 16 15 13 14 15 13 14 14 13
6 2 4 4 3 14 16 14 15 9 13 7 7 7 7 11 12 14 16 14 10 16 18 20 19 20 14 17 18 19 17 16 15 15 15 14 13 14 13 12 14 13 14 14
4 0 6 4 7 7 5 8 15 14 15 11 8 4 4 18 16 13 13 9 7 7 6 11 15 15 15 16 16 16 17 17 17 17 16 15 16 16 13 13 12 14 13 14
3 1 7 6 12 13 4 7 15 15 15 14 10 8 7 20 17 18 16 14 8 9 9 11 9 12 15 15 16 17 17 17 15 15 17 17 17 16 13 12 13 10 12 13
6 2 7 14 23 9 5 2 8 12 14 15 12 2 7 15 16 16 16 17 12 10 7 10 14 15 14 14 18 14 11 12 14 16 17 16 13 12 11 12 11 11 12 12
6 5 5 18 10 7 1 4 5 8 12 12 11 10 10 15 16 19 21 20 19 12 9 5 5 12 11 11 6 9 11 13 13 14 12 11 13 11 12 11 12 11 11 10
1 2 11 14 9 3 5 4 5 8 12 11 11 12 12 12 14 14 16 16 16 13 13 12 9 9 9 2 5 8 11 12 13 12 12 12 13 12 10 11 11 10 10 9
4 2 11 11 2 4 6 4 8 7 8 10 10 11 12 11 12 13 13 15 14 15 14 12 10 9 7 4 5 6 6 6 6 9 9 10 9 10 10 10 10 10 10 10
2 4 11 7 12 11 12 6 8 7 6 9 10 12 11 9 10 10 10 12 11 11 10 11 8 7 5 5 6 7 5 3 4 6 8 8 4 4 8 8 8 10 10 8
2 8 7 9 14 16 14 9 7 10 10 6 7 8 10 9 7 7 9 10 12 12 11 12 9 7 7 6 6 5 4 3 2 1 3 5 6 4 9 5 4 4 5 7
5 13 8 11 11 14 15 16 14 10 9 10 6 6 7 7 5 9 8 10 10 9 9 11 10 9 9 8 6 5 4 3 1 2 4 5 5 7 6 5 12 12 6 6
14 11 7 11 10 15 13 14 13 13 10 9 8 6 6 6 6 7 6 7 7 6 7 8 8 7 9 10 8 7 5 4 2 1 2 4 6 6 5 6 5 4 11 8
16 14 12 12 12 14 16 14 11 10 10 9 9 7 6 6 6 6 7 7 7 6 6 6 7 8 10 9 8 6 5 2 3 2 1 1 5 5 6 6 6 7 6 6
12 13 12 17 16 16 16 18 15 13 11 8 5 7 8 6 5 4 6 8 8 7 9 10 8 7 9 7 7 5 3 4 5 3 3 3 4 6 6 6 6 6 5 5
12 15 11 12 14 17 15 13 13 13 14 12 10 6 8 9 6 7 8 9 8 7 7 9 13 12 10 7 7 6 2 0 6 4 5 4 4 5 6 6 7 7 5 3
3 5 9 8 9 11 14 14 14 15 14 14 10 11 11 8 8 8 10 10 8 10 7 11 12 16 13 11 7 7 2 1 2 5 6 5 5 6 7 8 8 9 8 9
4 5 7 10 10 9 8 9 11 12 13 14 15 13 10 10 9 9 6 5 6 7 9 13 17 15 12 14 13 6 4 5 4 5 6 7 6 6 7 8 9 8 8 8
2 1 2 4 6 7 9 10 9 11 11 11 11 12 12 12 10 10 9 9 10 7 10 11 10 9 10 13 14 2 6 7 8 6 6 6 6 6 6 8 9 9 9 8
5 4 2 0 2 3 5 7 8 11 10 10 11 13 12 11 10 11 12 8 12 17 14 17 11 7 5 9 3 3 6 8 7 6 6 6 7 7 7 8 8 8 9 9
4 3 3 4 4 5 5 6 7 7 7 10 11 11 12 12 12 10 12 11 10 22 12 9 10 13 8 9 3 4 6 9 8 8 8 8 8 7 8 8 8 8 8 8
5 4 3 3 4 5 6 4 4 5 6 7 6 9 8 6 6 10 11 13 12 19 12 11 23 25 20 10 7 8 11 12 11 11 10 8 10 10 10 9 10 8 8 8
3 5 4 2 3 4 6 4 4 4 5 5 5 6 3 3 2 3 5 10 16 16 15 17 21 27 23 11 10 11 11 12 13 12 12 13 10 11 10 11 9 8 8 9
1 1 1 1 3 3 4 4 3 4 5 6 6 7 7 2 3 2 1 3 11 11 11 21 25 26 14 14 12 14 14 13 12 13 10 10 11 7 10 10 6 7 8 7
1 2 1 2 1 1 1 3 2 3 3 3 3 5 6 5 3 2 2 4 2 6 7 10 12 12 13 13 13 14 13 13 12 9 12 9 7 5 7 7 6 4 5 7
2 4 3 2 3 2 3 3 2 3 4 3 2 3 4 3 4 4 4 4 2 3 6 7 7 11 10 10 11 11 10 10 12 9 8 6 6 6 6 5 5 5 4 5
Wind_Direction
269 275 272 258 277 285 245 243 222 216 213 224 226 251 200 222 250 257 249 234 212 203 198 195 194 177 184 184 187 184 185 188 194 193 190 192 196 197 192 193 201 205 200 206
283 241 243 262 262 262 248 248 247 265 269 312 34 72 23 337 318 284 249 226 216 203 194 187 188 185 179 181 180 180 184 191 191 190 188 192 193 194 193 196 202 204 209 206
259 320 323 274 224 209 94 34 281 239 15 307 336 50 25 355 346 328 313 285 216 197 189 186 186 181 180 177 170 180 186 189 187 189 193 195 194 193 198 202 195 206 209 208
272 279 170 143 67 89 99 51 13 4 358 344 142 154 58 14 355 336 319 306 207 189 185 186 182 184 158 165 173 179 184 184 185 186 191 192 192 196 201 200 203 207 211 212
274 46 307 194 27 359 26 44 10 355 352 344 295 282 354 359 344 331 328 305 262 158 156 158 169 167 157 166 170 175 183 186 185 184 187 188 194 197 197 198 204 209 210 211
263 149 213 57 331 313 240 43 360 354 355 344 30 61 337 337 338 347 353 5 339 123 120 127 142 151 155 164 171 182 188 188 183 186 191 192 197 198 198 200 210 208 214 214
247 269 273 355 322 293 133 131 336 347 358 4 54 93 308 333 351 0 5 12 15 39 100 143 149 149 162 167 189 181 171 176 183 190 194 197 194 195 193 200 204 209 214 216
195 210 215 352 337 70 20 51 334 338 347 356 6 5 360 4 358 6 8 14 16 30 41 58 104 149 155 174 154 164 169 179 187 190 192 191 189 189 192 192 202 209 212 218
7 319 325 305 299 42 47 321 321 333 343 345 1 7 5 2 6 7 15 16 14 20 33 50 59 97 104 82 152 156 167 180 188 186 190 188 186 187 188 192 199 207 209 217
19 4 312 299 272 355 351 310 299 326 339 353 357 2 8 359 4 9 13 15 12 18 20 22 30 62 87 86 80 113 136 158 163 180 183 189 187 191 195 196 199 205 207 213
252 287 327 217 333 336 334 310 304 323 352 360 356 3 356 350 360 2 5 8 11 14 16 10 359 32 37 75 88 84 81 99 152 177 182 173 146 202 205 203 209 204 213 202
300 308 290 291 312 323 327 319 325 328 335 12 1 345 346 344 340 352 359 1 10 11 11 5 2 11 15 13 57 77 84 94 92 151 168 172 163 149 57 17 346 294 240 175
327 334 341 342 341 341 320 314 316 309 319 329 352 335 337 320 327 331 347 4 4 0 3 2 358 14 7 1 6 23 19 353 87 166 177 168 172 182 171 53 64 53 50 138
3 334 356 8 350 343 337 312 304 302 307 307 317 316 309 316 318 331 349 328 331 355 9 356 352 2 358 352 353 1 347 22 8 306 238 178 179 184 165 163 149 92 36 64
4 4 3 348 12 13 359 352 336 329 319 324 317 324 322 325 320 320 319 333 327 338 352 353 349 335 343 349 342 335 320 353 18 13 351 213 133 140 152 137 124 123 126 85
358 0 0 12 5 18 16 5 0 351 332 317 300 325 330 301 299 310 356 1 359 341 339 335 319 325 324 331 323 314 326 52 68 56 50 61 112 127 128 125 126 124 116 114
21 18 5 12 8 4 19 16 11 4 359 2 356 12 28 360 351 1 358 357 349 340 350 340 320 321 317 321 318 302 299 269 107 94 84 86 105 116 120 117 112 102 83 57
7 22 18 11 13 14 11 20 22 14 7 8 19 35 34 29 358 21 359 340 349 341 336 335 326 323 322 319 315 292 227 181 113 106 104 107 122 128 124 119 115 112 101 78
359 14 357 5 6 12 11 20 28 26 17 11 21 23 20 24 18 9 11 9 3 354 329 313 319 328 317 315 316 269 188 139 119 109 109 120 116 112 113 112 108 100 96 90
183 253 325 348 345 347 352 353 12 34 25 26 30 30 22 15 13 16 2 32 0 328 325 312 317 327 318 308 316 246 145 145 144 139 137 124 115 100 91 93 107 104 97 88
189 220 246 319 340 353 356 355 357 32 29 21 31 31 18 13 10 16 27 18 357 3 360 348 341 344 332 313 302 85 111 115 113 109 108 106 105 102 97 92 93 100 101 102
205 222 273 312 334 332 351 358 359 352 353 42 34 32 29 21 21 22 28 10 349 3 354 357 356 11 10 360 11 92 105 105 102 98 96 94 90 86 85 86 82 81 88 89
211 219 221 278 306 314 319 307 328 343 343 350 31 55 37 8 8 22 18 3 10 2 359 6 20 24 31 30 39 63 76 71 76 80 76 77 90 82 80 74 75 67 64 68
231 239 227 245 299 337 325 311 322 284 306 316 318 305 324 13 26 339 342 8 15 21 15 15 26 34 40 31 31 50 57 76 72 72 76 78 74 89 88 84 80 90 84 75
176 300 16 236 297 326 318 331 5 352 321 303 312 308 315 280 212 280 233 24 22 26 23 17 25 34 37 41 28 48 50 56 61 74 75 73 67 63 83 78 70 92 87 71
181 83 111 153 84 227 98 48 42 346 350 358 335 335 328 339 347 37 69 147 51 52 35 31 33 34 40 34 40 40 43 47 51 54 62 60 65 67 79 89 90 54 78 98
78 103 117 79 17 58 96 93 61 26 352 352 329 334 335 353 356 355 38 74 91 67 71 62 52 59 48 47 51 44 51 50 43 42 50 54 54 39 39 38 62 69 60 85